Tracking 27112 objects as of 26-Mar-2023
HD Live streaming from Space Station
objects crossing your sky now

HAWK-3B

Track HAWK-3B now!
10-day predictions


NORAD ID: 48931
Int'l Code: 2021-059BE
Perigee: 506.0 km
Apogee: 526.2 km
Inclination: 97.6 °
Period: 94.8 minutes
Semi major axis: 6887 km
RCS: Unknown
Launch date: June 30, 2021
Source: United States (US)
Launch site: AIR FORCE EASTERN TEST RANGE (AFETR)
Your satellite tracking list
Your tracking list is empty




NASA's NSSDC Master Catalog

Two Line Element Set (TLE):
1 48931U 21059BE  23084.88253351  .00011819  00000-0  56673-3 0  9994
2 48931  97.5713 218.5065 0014637 207.1136 152.9335 15.18965216 96633
Source of the keplerian elements: AFSPC